User: anonymous   Login
Location: Allaines
(49.9632°N, 2.9458°E)
Time: 12:36:28
(UTC+00:00)
Language:

STARLINK-1247 - Orbit

View from above orbital plane
View from above orbital plane
View from above satellite
View from above satellite

Ground track
Ground track

The orbit data is extracted from the following two-line orbital elements,

1 45236U 20012BL  20188.91667824 -.00025437 +00000-0 -17319-2 0  9993
2 45236 053.0005 307.1577 0001330 089.7632 223.8254 15.05601038001755
Epoch (UTC): 06 July 2020 22:00:01
Eccentricity: 0.0001330
inclination: 53.0005°
perigee height: 549 km
apogee height: 550 km
right ascension of ascending node: 307.1577°
argument of perigee: 89.7632°
revolutions per day: 15.05601038
mean anomaly at epoch: 223.8254°
orbit number at epoch: 175

The dashed part of the orbit path shows where the satellite is in the earth's shadow,  

DLR